Погода в Каргополе

Погода в Каргополе : погода сейчас, прогноз погоды и архив. Всё, что Вы хотите узнать о погоде в Каргополе!

Хотите узнать прогноз погоды в Каргополе? Тогда Вам сюда: Погода в Каргополе

Поиск расширенной информации на нашем сайте:

Другие новости

Новости СМИ2

Главная страница сайта

Новости сайта

02.10.2013

Напоминаем, что на нашем новом сайте вы можете получить высокодетализированные прогнозы погоды по пунктам России, СНГ и мира (включающие важные для авиации метеовеличины, такие как направление и скорость ветра, видимость, явления погоды, количество и форма облачности, нижняя и верхняя граница облачности), а также ознакомиться с разнообразными материалами по авиационной метеорологии и подборкой полезных ссылок на эту тему.

Сайт Метеоцентр.Азия посвящён разработке технологий оптимизации авиаметеорологического обслуживания, включая проектирование и перспективное создание нескольких автоматизированных авиаметеорологических систем:
- система выпуска высокодетальных прогностических карт явлений погоды для нижнего воздушного пространства по России и ближнему зарубежью;
- система верификации прогнозов TAF (выпускаемых синоптиками официальных АМСГ РФ и ближнего зарубежья) и AUTOTAF (выпускаемых сайтом Метеоцентр.Азия) - выявление ошибок, онлайн-сопоставление с фактической погодой METAR, автоматическое внесение коррективов в прогнозы при резком отклонении фактической погоды от прогноза, подсчёт оправдываемости прогнозов по элементам и в целом;
- система обработки, анализа и отображения авиаметеорологической информации для применения провайдерами метеорологической информации.

Рекомендуем: Подробное описание пескоструйная очистка металлоконструкций здесь.

Погода в Каргополе - сегодня

Время (UTC), дата Ветер
(°,м/с) 
Видим.   Явления Облачность Т
(°С)
Тd
(°С)
f(%) Тe
(°С)
Pmin
(гПа)
dP
(гПа)
Po
(мм)
O2
(г/м3)
Тmin Tmax R s Состояние
почвы
09 26.04.17 150 (ЮВ) 6-11{18}  10 км  слаб. дождь  10/8 400 м средняя 
[Frnb|As op]
+2.8 +1.2 89 1004.2  -1.9  742  296           
12 26.04.17 170 (Ю) 6-10{13}  10 км  слаб. дождь  10/8 360 м средняя 
[Frnb|As op]
+2.7 +1.5 92 1002.9  -1.3  741  295           
15 26.04.17 190 (Ю) 4{11}  20000 м  в посл. час дождь  6/6 1000 м 
[Sc]
+4 +2.2 88 +2  1002.5  -0.3  740  294    +7.6  10     
18 26.04.17 170 (Ю) 20000 м  в посл. час дождь  4/4 1000 м 
[Sc]
+0.9 -0 94 1003.1  0.4  741  297           
21 26.04.17 190 (Ю) 20000 м  {ливн. осадки}  9/9 1000 м 
[Sc]
+1.3 +0.2 92 -1  1003.4  0.3  741  297           
00 27.04.17 200 (Ю) 20000 м  {ливн. осадки}  9/9 750 м кучево-дожд. 
[Cb cap]
+1 -0.6 89 -1  1003.8  0.3  741  298           
03 27.04.17 200 (Ю) 20000 м    6/6 1000 м 
[Sc]
+1 -0.8 88 -1  1004.9  1.1  742  298  +0.3    равномерный
мокрый или
старый снег
100% 
06 27.04.17 210 (ЮЗ) 5{12}  20000 м    10/10 1000 м 
[Sc]
+2.6 -1.7 73 1006.5  1.6  743  297           
09 27.04.17 210 (ЮЗ) 6-12{12}  20000 м    8/8 1000 м 
[Sc]
+6.2 -3.9 48 +4  1007.2  0.9  744  294           
12 27.04.17 230 (ЮЗ) 5{13}  20000 м    8/8 600 м кучево-дожд. 
[Cb cap]
+6.6 -6.6 38 +5  1008.2  0.9  745  294           
15 27.04.17 230 (ЮЗ) 5{11}  20000 м    6/6 1000 м 
[Sc]
+7.1 -7.2 35 +5  1009.4  1.3  746  294    +7.3       
18 27.04.17 230 (ЮЗ) 20000 м    3/3 1000 м 
[Sc]
+4.2 -6.4 46 +4  1010.8  1.1  746  297           
21 27.04.17 220 (ЮЗ) 20000 м    ясно 
+1.4 -5.9 58 +1  1012.1  1.1  747  300           
00 28.04.17 190 (Ю) 20000 м    ясно 
-1 -4.3 78 1013.7  1.4  748  303           
03 28.04.17 200 (Ю) 20000 м    ясно 
-0.1 -3.3 79 -1  1015.2  1.6  750  303  -1.5      мокрый или
старый снег
50-90% 
06 28.04.17 240 (ЮЗ) 20000 м    8/3 600 м средняя 
[Sc|Ac trans]
+4.1 -3.5 58 +2  1017.1  1.5  751  299           
09 28.04.17 240 (ЮЗ) 4{10}  20000 м    8/8 660 м 
[Sc diur, vesp]
+6.7 -4.2 46 +5  1018.9  1.9  753  296           
12 28.04.17 300 (СЗ) 4{11}  20000 м    9/6 600 м средняя, верхняя 
[Sc diur, vesp|Ac trans|Ci sp]
+7 -6.2 38 +6  1021.6  2.7  755  297           
15 28.04.17 350 (С) 20000 м    8/6 600 м средняя, верхняя 
[Sc diur, vesp|Ac trans|Ci fib]
+5.6 -3.6 52 +4  1024.3  2.6  757  299    +7.6       
18 28.04.17 010 (С) 20000 м    4/3 1000 м верхняя 
[Sc diur, vesp|Ci fib]
+1.1 -4.3 67 1027.2  2.6  758  305           
21 28.04.17 010 (С) 20000 м    6/0 верхняя 
[Ci fib]
-1.8 -5 79 -1  1029.2  1.8  760  309           
00 29.04.17 040 (СВ) 20000 м    6/6 1000 м 
[Sc]
-2.1 -5.5 77 -2  1030.4  1.2  761  310           
03 29.04.17 040 (СВ) 20000 м    10/0 верхняя 
[Cc]
-1 -6 69 -2  1031.5  1.1  761  309  -2.7        мокрая 
06 29.04.17 060 (СВ) 20000 м    10/6 1000 м верхняя 
[Sc|Ci fib]
+1.6 -5.8 58 1031.3  761  306           
09 29.04.17 090 (В) 20000 м    10/3 1000 м средняя 
[Sc|As op]
+2.1 -5.7 56 +1  1031.2  761  305           
Время (UTC), дата Ветер
(°,м/с) 
Видим.   Явления Облачность Т
(°С)
Тd
(°С)
f(%) Тe
(°С)
Pmin
(гПа)
dP
(гПа)
Po
(мм)
O2
(г/м3)
Тmin Tmax R s Состояние
почвы

Для получения пояснительной информации подведите курсор к названию столбца.

ПОГОДА в Каргополе - архив

Всё, что Вы хотите узнать о погоде в Каргополе - удобно и подробно!

Выберите нужную дату (начиная с 1 января 2015* года) и нажмите кнопку "Найти".
Будут отображены архивные сводки погоды по пункту Каргополь, начиная с указанной даты.


Отображать данные в формате CSV (для использования в таблицах Excel)


Внимание! Наш архив погоды предназначен исключительно для личного некоммерческого использования в познавательных целях. Если Вам необходимы официальные справки о состоянии погоды (для производственных, юридических, коммерческих и т.п. целей), обращайтесь в органы Росгидромета.

*Примечание: данная дата относится к архиву по метеостанциям СССР (Россия, СНГ, Балтия).
Архив по метеостанциям Зарубежной Европы и Азии (кроме Китая) хранится 10 дней, по другим регионам земного шара (Китай, Африка, Америка, Австралия, Океания) - 1 день.

Каргополь - район местоположения метеостанции


Название, широта, долгота, высота метеостанции:
Каргополь 61.5°ш. 38.9°д. 126 м над ур. моря [Российская Федерация]

Дополнительная информация

В oтличие oт бoльшинства пoгoдных сайтoв мы публикуем пoдрoбную метеoинфoрмацию в детальнoм прoфессиoнальнoм фoрмате.

Характеристики температуры и влажнoсти вoздуха измеряются на высoте 2 м в тени вдали oт зданий и деревьев.
Скoрoсть ветра измеряется на высoте 10 м (на урoвне рoста челoвека скoрoсть ветра ниже в 1.5-2 раза). Если метеoстанция нахoдится в гoрoде или в лесу, тo скoрoсть ветра занижена на 2-4 м/с пo сравнению с oткрытым местoм. Скoрoсть ветра над акватoриями крупных рек и oзёр, а также на вершинах хoлмoв на 2-5 м/с выше, чем в oбычных услoвиях.
Атмoсфернoе давление в разных тoчках местнoсти мoжет значительнo oтличаться oт давления на метеoстанции, в зависимoсти oт услoвий рельефа (при пoдъёме на 10 м давление пoнижается примернo на 1 мм рт.ст.).